FW8150 Weather Reports


time (UTC)temp
F
wind
direction
speed
knots
gust
knots
rain 1hr
in
rain 24hr
in
rain mn
in
humidity
%
barometer
mb
20260510164227 70 335 3.5 5.2 0.00 0.00 0.00 45 1020.5
20260510163726 68 339 1.7 7.8 0.00 0.00 0.00 47 1020.4
20260510163222 68 9 3.5 5.2 0.00 0.00 0.00 48 1020.4
20260510162722 67 56 2.6 6.1 0.00 0.00 0.00 49 1020.2
20260510162220 68 336 5.2 7.0 0.00 0.00 0.00 49 1020.2
20260510161715 68 59 1.7 4.3 0.00 0.00 0.00 50 1020.3
20260510161211 67 19 4.3 9.6 0.00 0.00 0.00 50 1020.2
20260510160709 68 33 5.2 10.4 0.00 0.00 0.00 49 1020.3
20260510160204 68 35 3.5 6.1 0.00 0.00 0.00 48 1020.5
20260510155700 68 19 3.5 7.8 0.00 0.00 0.00 48 1020.2
20260510155156 66 343 5.2 12.2 0.00 0.00 0.00 47 1020.3
20260510154652 66 359 4.3 11.3 0.00 0.00 0.00 46 1020.3
20260510154148 67 12 7.8 9.6 0.00 0.00 0.00 49 1020.2
20260510153643 67 43 7.8 7.8 0.00 0.00 0.00 51 1020.2
20260510153140 67 39 1.7 7.0 0.00 0.00 0.00 49 1020.2
20260510152636 67 356 7.8 10.4 0.00 0.00 0.00 50 1020.7
20260510152132 67 33 4.3 7.8 0.00 0.00 0.00 47 1020.3
20260510151629 67 32 7.0 11.3 0.00 0.00 0.00 46 1020.1
20260510151128 67 19 9.6 13.0 0.00 0.00 0.00 50 1020.3
20260510150628 67 341 1.7 4.3 0.00 0.00 0.00 52 1020.4
20260510150124 65 349 8.7 13.0 0.00 0.00 0.00 53 1020.1
20260510145620 66 17 6.1 9.6 0.00 0.00 0.00 53 1020.1
20260510145117 66 36 3.5 5.2 0.00 0.00 0.00 54 1020.3
20260510144613 65 13 5.2 5.2 0.00 0.00 0.00 54 1020.0
20260510144109 65 74 1.7 5.2 0.00 0.00 0.00 54 1020.0
20260510143605 65 120 1.7 5.2 0.00 0.00 0.00 56 1019.7
20260510143101 64 52 2.6 9.6 0.00 0.00 0.00 56 1019.7
20260510142558 64 355 3.5 11.3 0.00 0.00 0.00 56 1019.6
20260510142055 64 358 7.0 8.7 0.00 0.00 0.00 58 1019.8
20260510141551 64 338 7.0 9.6 0.00 0.00 0.00 56 1019.8
20260510141049 63 89 0.9 7.8 0.00 0.00 0.00 61 1019.7
20260510140545 62 345 5.2 15.6 0.00 0.00 0.00 62 1019.7
20260510140045 62 354 6.1 10.4 0.00 0.00 0.00 64 1019.3
20260510135541 62 28 6.1 10.4 0.00 0.00 0.00 65 1019.5
20260510135037 62 27 5.2 12.2 0.00 0.00 0.00 66 1019.1
20260510134534 63 53 4.3 5.2 0.00 0.00 0.00 65 1019.0
20260510134031 63 49 3.5 5.2 0.00 0.00 0.00 67 1019.1
20260510133527 63 4 1.7 7.0 0.00 0.00 0.00 69 1018.9
20260510133023 63 342 2.6 7.8 0.00 0.00 0.00 70 1018.8
20260510132520 63 6 1.7 5.2 0.00 0.00 0.00 72 1018.7
20260510132017 63 75 1.7 7.0 0.00 0.00 0.00 73 1018.6
20260510131515 63 26 3.5 5.2 0.00 0.00 0.00 74 1018.8
20260510131012 62 24 2.6 11.3 0.00 0.00 0.00 75 1018.6
20260510130508 62 354 2.6 5.2 0.00 0.00 0.00 77 1018.4
20260510130006 61 44 3.5 11.3 0.00 0.00 0.00 77 1018.3
20260510125501 61 19 6.1 7.0 0.00 0.00 0.00 79 1018.6
20260510124958 61 10 4.3 7.0 0.00 0.00 0.00 80 1018.4
20260510124454 60 15 4.3 8.7 0.00 0.00 0.00 81 1018.0
20260510123951 60 348 2.6 9.6 0.00 0.00 0.00 82 1018.1
20260510123447 60 354 5.2 7.0 0.00 0.00 0.00 82 1018.1
20260510122943 60 13 6.1 8.7 0.00 0.00 0.00 82 1018.0
20260510122439 60 0 5.2 8.7 0.00 0.00 0.00 82 1018.0
20260510121935 60 6 6.1 9.6 0.00 0.00 0.00 82 1017.8
20260510121432 60 349 4.3 8.7 0.00 0.00 0.00 84 1018.0
20260510120930 60 0 5.2 8.7 0.00 0.00 0.00 86 1018.1
20260510120427 59 345 5.2 7.8 0.00 0.00 0.00 87 1017.7
20260510115923 59 15 2.6 7.0 0.00 0.00 0.00 87 1017.7
20260510115420 59 24 3.5 5.2 0.00 0.00 0.00 87 1017.6
20260510114915 59 319 2.6 4.3 0.00 0.00 0.00 88 1017.3
20260510114414 59 348 3.5 4.3 0.00 0.00 0.00 88 1017.4
20260510113914 59 5 1.7 4.3 0.00 0.00 0.00 88 1017.2
20260510113409 59 350 2.6 5.2 0.00 0.00 0.00 88 1017.2
20260510112907 59 337 1.7 2.6 0.00 0.00 0.00 87 1017.0
20260510112404 59 348 1.7 3.5 0.00 0.00 0.00 86 1017.0
20260510111900 59 350 2.6 5.2 0.00 0.00 0.00 86 1016.8
20260510111356 59 0 2.6 3.5 0.00 0.00 0.00 86 1016.9
20260510110852 59 352 3.5 5.2 0.00 0.00 0.00 86 1016.9
20260510110349 59 345 1.7 3.5 0.00 0.00 0.00 86 1016.8
20260510105845 59 349 1.7 3.5 0.00 0.00 0.00 85 1017.0
20260510105344 59 330 2.6 3.5 0.00 0.00 0.00 85 1016.8
20260510104841 59 336 1.7 5.2 0.00 0.00 0.00 84 1016.7
20260510104338 60 9 3.5 5.2 0.00 0.00 0.00 83 1016.4
20260510103834 60 2 3.5 7.8 0.00 0.00 0.00 83 1016.5
20260510103331 59 8 2.6 5.2 0.00 0.00 0.00 82 1016.4
20260510102827 60 348 1.7 3.5 0.00 0.00 0.00 82 1016.1
20260510102323 60 347 2.6 2.6 0.00 0.00 0.00 81 1016.1
20260510101820 60 319 3.5 5.2 0.00 0.00 0.00 81 1016.1
20260510101318 59 13 4.3 5.2 0.00 0.00 0.00 81 1016.2
20260510100814 59 0 2.6 7.0 0.00 0.00 0.00 81 1016.2
20260510100313 57 5 1.7 2.6 0.00 0.00 0.00 82 1016.1
20260510095808 57 349 1.7 2.6 0.00 0.00 0.00 82 1016.0
20260510095305 57 325 0.9 1.7 0.00 0.00 0.00 81 1015.9
20260510094802 57 327 1.7 1.7 0.00 0.00 0.00 81 1015.8
20260510094257 58 260 0.9 1.7 0.00 0.00 0.00 82 1015.7
20260510093753 58 246 0.0 0.9 0.00 0.00 0.00 82 1015.6
20260510093251 58 14 0.0 1.7 0.00 0.00 0.00 81 1015.3
20260510092747 58 322 0.0 0.0 0.00 0.00 0.00 78 1015.4
20260510092243 58 230 0.0 0.0 0.00 0.00 0.00 78 1015.4
20260510091738 59 186 0.0 0.0 0.00 0.00 0.00 77 1015.3
20260510091236 58 203 0.0 1.7 0.00 0.00 0.00 78 1015.4
20260510090732 58 287 0.0 0.0 0.00 0.00 0.00 80 1015.3
20260510090229 57 157 0.0 0.0 0.00 0.00 0.00 79 1015.3
20260510085725 59 124 0.0 1.7 0.00 0.00 0.00 79 1015.3
20260510085219 60 326 0.0 1.7 0.00 0.00 0.00 74 1015.3
20260510084715 59 13 1.7 1.7 0.00 0.00 0.00 74 1015.2
20260510084213 59 309 0.9 0.9 0.00 0.00 0.00 74 1015.3
20260510083709 59 328 0.0 1.7 0.00 0.00 0.00 75 1015.4
20260510083207 59 242 1.7 1.7 0.00 0.00 0.00 75 1015.2
20260510082702 59 263 0.9 1.7 0.00 0.00 0.00 76 1015.4
20260510082158 60 271 1.7 1.7 0.00 0.00 0.00 71 1015.2
20260510081653 60 291 0.9 2.6 0.00 0.00 0.00 72 1015.4
20260510081149 59 265 1.7 1.7 0.00 0.00 0.00 74 1015.1
20260510080648 58 293 0.0 1.7 0.00 0.00 0.00 77 1015.1
20260510080146 57 7 1.7 2.6 0.00 0.00 0.00 81 1014.8
20260510075642 59 5 1.7 1.7 0.00 0.00 0.00 75 1014.7
20260510075140 59 24 0.0 1.7 0.00 0.00 0.00 73 1014.9
20260510074637 59 268 0.9 1.7 0.00 0.00 0.00 75 1014.6
20260510074132 58 322 0.0 1.7 0.00 0.00 0.00 77 1014.8
20260510073629 59 334 1.7 2.6 0.00 0.00 0.00 74 1014.8
20260510073125 61 347 0.0 0.9 0.00 0.00 0.00 68 1014.6
20260510072622 62 311 0.0 1.7 0.00 0.00 0.00 65 1014.7
20260510072118 62 322 0.0 0.9 0.00 0.00 0.00 66 1014.8
20260510071614 63 246 0.0 0.0 0.00 0.00 0.00 68 1014.8
20260510071112 63 263 1.7 2.6 0.00 0.00 0.00 66 1014.8
20260510070608 63 165 0.0 1.7 0.00 0.00 0.00 67 1014.7
20260510070107 63 269 0.0 1.7 0.00 0.00 0.00 69 1015.0
20260510065602 63 147 0.0 0.9 0.00 0.00 0.00 64 1014.9
20260510065059 63 240 0.0 2.6 0.00 0.00 0.00 64 1015.0
20260510064555 64 352 0.0 0.0 0.00 0.00 0.00 63 1015.1
20260510064051 65 261 0.0 1.7 0.00 0.00 0.00 58 1015.1
20260510063549 66 254 1.7 2.6 0.00 0.00 0.00 57 1015.1
20260510063045 66 267 1.7 3.5 0.00 0.00 0.00 57 1015.1
20260510062541 66 232 2.6 5.2 0.00 0.00 0.00 59 1015.1
20260510062037 66 242 2.6 3.5 0.00 0.00 0.00 57 1015.3
20260510061533 66 234 1.7 2.6 0.00 0.00 0.00 57 1015.2
20260510061030 66 229 2.6 3.5 0.00 0.00 0.00 56 1015.1
20260510060526 65 220 0.9 2.6 0.00 0.00 0.00 59 1015.2
20260510060023 64 246 0.9 2.6 0.00 0.00 0.00 63 1015.2
20260510055519 63 210 0.9 1.7 0.00 0.00 0.00 66 1015.2
20260510055017 64 180 0.0 0.9 0.00 0.00 0.00 67 1015.2
20260510054513 63 191 0.0 1.7 0.00 0.00 0.00 68 1015.3
20260510054008 63 340 0.9 4.3 0.00 0.00 0.00 70 1015.5
20260510053502 61 317 4.3 10.4 0.00 0.00 0.00 70 1015.4
20260510053000 61 225 3.5 4.3 0.00 0.00 0.00 78 1015.1
20260510052456 60 1 4.3 8.7 0.00 0.00 0.00 79 1015.2
20260510051952 60 356 1.7 1.7 0.00 0.00 0.00 76 1014.7
20260510051448 63 307 0.9 1.7 0.00 0.00 0.00 74 1014.5
20260510050944 61 269 0.0 2.6 0.00 0.00 0.00 75 1014.4
20260510050441 59 326 0.0 1.7 0.00 0.00 0.00 83 1014.3
20260510045939 58 240 0.0 1.7 0.00 0.01 0.01 89 1014.1
20260510045436 58 154 0.0 2.6 0.00 0.01 0.01 88 1014.0
20260510044932 58 146 0.9 1.7 0.00 0.01 0.01 90 1014.0
20260510044429 58 129 0.0 2.6 0.00 0.01 0.01 90 1013.9
20260510043926 58 103 0.0 0.0 0.00 0.01 0.01 89 1014.0
20260510043422 59 131 3.5 4.3 0.00 0.01 0.01 90 1014.1
20260510042920 59 89 0.0 0.0 0.00 0.01 0.01 90 1013.9
20260510042416 59 230 0.0 0.0 0.00 0.01 0.01 91 1014.0
20260510041912 58 212 0.0 0.0 0.00 0.01 0.01 90 1013.9
20260510041409 58 135 0.0 0.0 0.00 0.01 0.01 89 1013.8
20260510040907 58 76 0.0 0.0 0.00 0.01 0.01 89 1013.7
20260510040404 59 37 0.0 0.0 0.00 0.01 0.01 88 1013.7
20260510035859 59 38 0.0 0.0 0.00 0.01 0.01 87 1013.9
20260510035355 59 353 0.0 0.0 0.00 0.01 0.01 87 1013.9
20260510034851 59 353 0.0 0.9 0.00 0.01 0.01 87 1013.9
20260510034349 59 0 0.0 0.0 0.00 0.01 0.01 86 1013.9
20260510033845 59 66 0.0 0.0 0.00 0.01 0.01 87 1013.8
20260510033341 59 38 0.0 0.9 0.00 0.01 0.01 87 1013.7
20260510032838 59 37 0.0 0.0 0.00 0.01 0.01 86 1013.7
20260510032335 60 316 0.9 0.9 0.00 0.01 0.01 85 1013.7
20260510031831 59 345 0.9 1.7 0.00 0.01 0.01 84 1013.7
20260510031327 59 0 0.0 0.0 0.00 0.01 0.01 84 1013.7
20260510030826 60 336 0.0 0.9 0.00 0.01 0.01 85 1013.6
20260510030323 61 269 0.0 0.0 0.00 0.01 0.01 84 1013.6
20260510025820 61 214 0.0 1.7 0.00 0.01 0.01 84 1013.2
20260510025318 62 326 0.0 0.0 0.00 0.01 0.01 82 1013.3
20260510024814 62 326 0.0 0.0 0.00 0.01 0.01 81 1013.3
20260510024312 63 331 0.0 0.0 0.00 0.01 0.01 80 1013.3
20260510023808 63 224 0.0 0.0 0.00 0.01 0.01 77 1013.0
20260510023304 64 224 0.0 0.0 0.00 0.01 0.01 79 1012.9
20260510022801 64 229 0.0 0.9 0.00 0.01 0.01 76 1013.0
20260510022301 65 235 0.0 0.0 0.00 0.01 0.01 73 1012.8
20260510021800 65 235 0.0 0.9 0.00 0.01 0.01 73 1012.7
20260510021258 66 142 0.0 0.0 0.00 0.01 0.01 70 1012.5
20260510020754 66 142 0.0 0.0 0.00 0.01 0.01 69 1012.5
20260510020253 67 142 0.0 0.0 0.00 0.01 0.01 67 1012.5
20260510015750 67 129 0.0 0.0 0.00 0.01 0.01 65 1012.3
20260510015246 66 129 0.0 0.0 0.00 0.01 0.01 67 1012.4
20260510014741 67 129 0.0 0.0 0.00 0.01 0.01 66 1012.2
20260510014239 68 129 0.0 0.0 0.00 0.01 0.01 64 1012.2
20260510013735 68 129 0.0 0.0 0.00 0.01 0.01 63 1012.1
20260510013230 68 142 0.0 0.0 0.00 0.01 0.01 61 1012.1
20260510012725 69 166 0.0 0.0 0.00 0.01 0.01 59 1012.1
20260510012220 69 166 0.0 0.0 0.00 0.01 0.01 58 1012.2
20260510011715 69 142 0.0 0.0 0.00 0.01 0.01 57 1012.0
20260510011211 69 129 0.0 0.9 0.00 0.01 0.01 55 1012.0
20260510010707 69 13 0.0 0.0 0.00 0.01 0.01 55 1011.9
20260510010204 70 13 0.0 0.0 0.00 0.01 0.01 55 1011.9
20260510005701 71 243 0.0 0.0 0.00 0.01 0.01 57 1011.8
20260510005157 71 242 0.0 0.9 0.00 0.01 0.01 53 1011.8
20260510004655 72 230 0.0 0.0 0.00 0.01 0.01 52 1011.6
20260510004153 73 229 0.0 0.0 0.00 0.01 0.01 53 1011.6
20260510003650 74 229 0.0 0.0 0.00 0.01 0.01 52 1011.5
20260510003146 74 242 0.0 0.0 0.00 0.01 0.01 47 1011.5
20260510002646 75 242 0.0 0.9 0.00 0.01 0.01 48 1011.5
20260510002143 76 269 0.0 2.6 0.00 0.01 0.01 47 1011.6
20260510001640 76 254 2.6 2.6 0.00 0.01 0.01 44 1011.5
20260510001138 76 246 3.5 3.5 0.00 0.01 0.01 42 1011.4
20260510000638 77 256 1.7 3.5 0.00 0.01 0.01 45 1011.4
20260510000136 77 245 2.6 2.6 0.00 0.01 0.01 40 1011.4
20260509235632 78 269 0.9 1.7 0.00 0.01 0.01 41 1011.4
20260509235129 78 233 1.7 3.5 0.00 0.01 0.01 41 1011.5
20260509234625 78 266 1.7 2.6 0.00 0.01 0.01 43 1011.3
20260509234123 78 249 1.7 2.6 0.00 0.01 0.01 42 1011.3
20260509233620 79 258 4.3 4.3 0.00 0.01 0.01 39 1011.2
20260509233118 79 253 1.7 5.2 0.00 0.01 0.01 41 1011.1
20260509232614 79 239 1.7 3.5 0.00 0.01 0.01 37 1011.4
20260509232111 79 268 1.7 2.6 0.00 0.01 0.01 37 1011.1
20260509231607 79 240 4.3 7.0 0.00 0.01 0.01 35 1011.3
20260509231105 80 223 1.7 4.3 0.00 0.01 0.01 38 1011.4
20260509230602 80 249 4.3 4.3 0.00 0.01 0.01 39 1011.4
20260509230059 80 245 4.3 7.8 0.00 0.01 0.01 36 1011.4
20260509225554 82 247 5.2 5.2 0.00 0.01 0.01 36 1011.4
20260509225050 83 280 1.7 2.6 0.00 0.01 0.01 35 1011.3
20260509224546 82 311 2.6 6.1 0.00 0.01 0.01 34 1011.3
20260509224043 82 253 2.6 4.3 0.00 0.01 0.01 36 1011.3
20260509223540 81 276 0.9 5.2 0.00 0.01 0.01 33 1011.3
20260509223038 82 246 3.5 5.2 0.00 0.01 0.01 35 1011.1
20260509222533 82 242 3.5 5.2 0.00 0.01 0.01 33 1011.2
20260509222029 82 287 1.7 4.3 0.00 0.01 0.01 34 1011.2
20260509221525 83 297 1.7 3.5 0.00 0.01 0.01 36 1010.8
20260509221021 82 301 1.7 9.6 0.00 0.01 0.01 33 1011.1
20260509220518 83 322 1.7 3.5 0.00 0.01 0.01 33 1011.0
20260509220014 83 224 2.6 2.6 0.00 0.01 0.01 33 1011.0
20260509215509 82 333 0.0 4.3 0.00 0.01 0.01 33 1011.2
20260509215007 82 257 4.3 5.2 0.00 0.01 0.01 34 1011.0
20260509214504 82 317 1.7 5.2 0.00 0.01 0.01 34 1011.0
20260509214001 81 249 7.0 9.6 0.00 0.01 0.01 34 1011.1
20260509213457 81 228 2.6 7.8 0.00 0.01 0.01 34 1011.1
20260509212954 82 278 2.6 4.3 0.00 0.01 0.01 33 1011.0
20260509212451 82 4 2.6 6.1 0.00 0.01 0.01 33 1011.2
20260509211947 83 311 1.7 4.3 0.00 0.01 0.01 32 1011.2
20260509211443 83 278 2.6 4.3 0.00 0.01 0.01 36 1011.3
20260509210940 83 256 2.6 4.3 0.00 0.01 0.01 32 1011.3
20260509210437 81 244 4.3 8.7 0.00 0.01 0.01 33 1011.5
20260509205932 82 261 5.2 5.2 0.00 0.01 0.01 34 1011.4
20260509205427 82 282 2.6 4.3 0.00 0.01 0.01 33 1011.5
20260509204923 81 237 6.1 7.8 0.00 0.01 0.01 33 1011.4
20260509204419 82 251 2.6 7.0 0.00 0.01 0.01 35 1011.5
20260509203916 81 271 5.2 9.6 0.00 0.01 0.01 34 1011.6
20260509203412 82 356 7.0 7.8 0.00 0.01 0.01 32 1011.6
20260509202910 81 248 9.6 11.3 0.00 0.01 0.01 34 1011.7
20260509202405 81 3 2.6 9.6 0.00 0.01 0.01 35 1011.7
20260509201901 82 247 3.5 7.8 0.00 0.01 0.01 34 1011.8
20260509201356 80 222 3.5 7.8 0.00 0.01 0.01 34 1011.8
20260509200854 81 288 3.5 8.7 0.00 0.01 0.01 36 1011.8
20260509200354 81 41 2.6 7.8 0.00 0.01 0.01 35 1011.9
20260509195851 82 0 5.2 7.0 0.00 0.01 0.01 34 1011.8
20260509195351 80 249 3.5 6.1 0.00 0.01 0.01 38 1011.9
20260509194851 81 6 1.7 5.2 0.00 0.01 0.01 36 1012.0
20260509194347 81 256 5.2 6.1 0.00 0.01 0.01 37 1011.9
20260509193844 81 252 5.2 6.1 0.00 0.01 0.01 36 1012.0
20260509193344 80 247 4.3 7.8 0.00 0.01 0.01 38 1012.0
20260509192840 80 230 7.0 10.4 0.00 0.01 0.01 36 1011.8
20260509192336 79 247 5.2 12.2 0.00 0.01 0.01 39 1011.7
20260509191831 79 251 4.3 8.7 0.00 0.01 0.01 38 1011.8
20260509191327 80 256 4.3 10.4 0.00 0.01 0.01 40 1011.8
20260509190824 80 272 2.6 8.7 0.00 0.01 0.01 39 1011.9
20260509190321 80 249 6.1 7.8 0.00 0.01 0.01 40 1012.0
20260509185818 80 256 7.8 8.7 0.00 0.01 0.01 37 1012.0
20260509185314 80 272 3.5 7.0 0.00 0.01 0.01 37 1012.0
20260509184812 79 218 5.2 8.7 0.00 0.01 0.01 40 1011.9
20260509184309 79 259 3.5 7.8 0.00 0.01 0.01 41 1011.9
20260509183806 79 254 7.0 10.4 0.00 0.01 0.01 41 1011.9
20260509183301 80 290 4.3 5.2 0.00 0.01 0.01 43 1012.1
20260509182756 79 356 2.6 7.0 0.00 0.01 0.01 42 1012.0
20260509182254 80 259 7.8 9.6 0.00 0.01 0.01 41 1012.0
20260509181751 79 326 2.6 6.1 0.00 0.01 0.01 46 1012.0
20260509181249 79 293 1.7 7.8 0.00 0.01 0.01 44 1011.9
20260509180746 78 40 3.5 9.6 0.00 0.01 0.01 44 1012.0
20260509180242 77 252 8.7 10.4 0.00 0.01 0.01 44 1012.1
20260509175738 78 224 7.0 7.8 0.00 0.01 0.01 43 1012.2
20260509175235 78 274 2.6 5.2 0.00 0.01 0.01 47 1012.2
20260509174731 77 338 6.1 11.3 0.00 0.01 0.01 43 1012.3
20260509174226 77 278 3.5 7.8 0.00 0.01 0.01 47 1012.2
20260509173723 76 257 6.1 12.2 0.00 0.01 0.01 44 1012.3
20260509173218 77 313 3.5 8.7 0.00 0.01 0.01 50 1012.4
20260509172715 76 255 3.5 6.1 0.00 0.01 0.01 50 1012.3
20260509172211 77 316 3.5 4.3 0.00 0.01 0.01 49 1012.4
20260509171707 75 243 5.2 9.6 0.00 0.01 0.01 51 1012.5
20260509171203 75 258 7.8 11.3 0.00 0.01 0.01 51 1012.3
20260509170700 75 256 4.3 10.4 0.00 0.01 0.01 51 1012.4
20260509170156 76 217 1.7 7.8 0.00 0.01 0.01 52 1012.6
20260509165654 75 347 1.7 5.2 0.00 0.01 0.01 52 1012.6
20260509165150 76 332 2.6 7.0 0.00 0.01 0.01 51 1012.6